Vorticity
5 9 9 5 6 11 16 7 9 10 11 6 8 0 10 0 15 12 9 24 11 11 10 11 7 9 12 -4 17 15 -4 -2 3 13 -6 8 13 9 4 2 5 0 15 10 20
6 7 9 7 6 9 14 7 10 9 10 9 7 7 5 12 9 11 7 13 12 5 7 9 13 11 7 8 -4 8 -2 10 18 -11 3 -11 12 10 9 2 2 -4 9 4 19
4 6 8 9 5 9 14 5 12 9 12 10 13 15 10 8 16 13 10 12 14 8 8 13 9 12 10 6 4 2 1 4 10 36 -5 -2 2 2 5 -3 1 7 11 3 15
5 6 7 6 8 7 10 12 11 8 9 5 6 -1 16 10 10 21 10 13 14 9 5 11 7 8 8 9 12 7 9 6 10 2 35 4 6 8 3 4 7 4 11 8 14
5 5 6 7 10 6 9 12 8 12 8 5 12 8 6 17 7 9 7 15 12 11 8 10 9 8 8 10 12 14 7 -3 5 -5 8 -1 7 9 10 10 5 4 6 14 14
7 2 2 8 16 8 7 12 11 10 8 2 6 7 1 15 12 11 12 13 12 11 7 4 6 6 16 14 10 26 19 14 14 6 7 7 -1 -3 8 7 5 8 5 12 13
11 7 2 5 8 12 6 10 12 9 8 6 1 5 10 13 16 15 10 9 14 12 8 8 16 4 5 3 -2 2 -3 8 12 16 21 15 6 11 3 1 2 8 8 10 13
13 12 10 3 5 11 9 7 12 10 9 9 6 -1 3 17 18 7 3 14 12 13 8 10 -0 6 3 0 8 14 18 5 7 1 6 7 11 12 7 8 9 8 9 11 12
7 10 13 12 5 6 13 5 8 11 7 10 9 6 12 13 15 13 8 9 12 16 9 7 -1 8 -1 3 9 14 13 7 6 4 -1 6 10 16 8 11 10 7 8 11 11
5 6 8 13 10 7 8 8 8 6 11 10 14 18 8 10 15 12 13 3 18 15 10 5 4 0 1 8 -2 3 3 5 8 7 5 5 8 9 3 14 10 8 9 10 12
5 6 6 7 12 10 8 7 7 11 9 7 1 9 2 7 17 13 11 9 2 16 8 7 7 1 2 0 0 -3 5 4 8 8 -1 10 4 1 7 10 10 12 8 11 13
5 5 6 7 7 10 10 8 7 6 14 8 8 12 10 2 8 14 11 7 10 1 16 10 3 3 5 1 2 7 0 8 12 6 11 9 9 9 6 6 9 9 8 13 18
6 6 6 8 6 8 8 7 10 10 10 13 16 12 10 3 2 12 14 9 8 14 8 11 6 10 5 6 0 3 5 0 -11 -7 13 10 15 4 5 3 3 12 10 4 5
8 8 8 8 9 8 6 9 10 11 24 17 11 15 19 14 10 5 9 16 7 10 18 30 15 -6 32 1 4 4 4 3 -6 1 -5 21 2 16 22 14 6 4 10 17 11
9 10 10 10 9 7 7 10 10 13 15 11 10 6 9 11 1 9 14 15 3 9 5 0 15 21 -7 18 12 4 4 4 3 2 9 12 -3 50 27 2 1 -1 4 15 14
9 10 10 11 9 9 8 11 12 17 16 6 3 -0 14 9 10 3 5 12 15 2 5 1 4 -1 38 1 27 7 -1 10 25 41 24 4 -24 21 -3 -9 -9 -4 0 14 9
9 9 12 11 9 9 10 13 16 7 7 21 5 10 -3 1 11 12 10 8 -1 18 19 6 -1 6 -8 7 13 10 13 15 19 5 1 28 23 -58 -12 13 11 10 29 10 14
9 9 11 10 11 9 14 16 7 14 -2 -1 3 3 -3 5 11 15 9 12 7 13 -12 11 53 45 7 -1 -11 12 0 -38 7 6 24 30 15 -38 25 29 4 12 4 18 7
10 10 11 10 16 17 14 14 -1 17 24 2 -0 8 28 34 10 -13 23 6 3 25 -8 -4 15 19 1 36 5 29 18 -2 -27 -42 10 -3 41 14 -4 11 11 12 23 -1 5
12 11 11 15 13 17 14 -10 -10 8 -1 0 2 6 -1 -9 4 16 28 22 32 35 28 16 42 37 25 15 32 5 5 29 11 12 5 13 4 -47 37 39 8 13 16 24 10
10 13 18 16 10 8 8 3 13 15 10 14 3 -0 3 5 -6 1 1 -2 3 -8 -8 6 20 -2 17 38 23 24 7 -14 15 -14 -0 13 26 22 1 -11 -2 8 11 13 15
10 15 10 6 13 8 8 21 19 5 -2 3 8 17 19 16 28 20 4 1 -16 -21 -19 -5 5 4 -1 -11 -0 53 25 33 -50 20 42 -49 3 -31 55 25 9 2 -1 -4 7
9 9 21 22 7 7 7 8 4 14 10 9 8 6 4 4 7 25 17 21 26 22 10 23 12 20 17 23 30 14 29 26 33 7 42 -23 50 35 -23 -12 8 26 15 8 8
27 5 7 20 23 12 8 5 19 12 10 8 4 8 14 15 16 -5 8 15 10 3 -5 -11 9 -15 -28 -35 -43 -10 -1 -1 21 -3 -34 -10 27 -6 37 13 -2 21 22 17 9
0 1 20 -10 -1 12 13 -2 8 11 13 15 11 7 3 8 16 9 9 14 21 15 13 12 14 15 18 16 14 5 10 9 25 -24 5 -4 1 19 5 7 24 -0 -37 10 14
16 26 19 10 2 10 5 2 6 12 12 12 7 7 6 7 9 4 3 -4 -13 -1 4 6 5 9 9 10 10 12 14 9 3 22 13 5 -2 9 13 5 14 8 15 8 1
14 15 10 5 1 8 8 18 12 2 17 9 7 -1 0 8 11 12 11 12 8 7 1 4 -3 2 16 10 18 65 15 21 29 31 27 0 15 19 15 42 14 2 4 7 20
Height
3089 3086 3083 3081 3078 3075 3073 3070 3067 3066 3064 3063 3063 3062 3061 3061 3060 3060 3061 3065 3069 3071 3074 3079 3081 3085 3088 3090 3093 3096 3099 3100 3101 3103 3107 3110 3114 3117 3119 3121 3123 3126 3128 3130 3132
3088 3085 3083 3080 3077 3074 3072 3070 3067 3065 3063 3063 3062 3061 3061 3059 3059 3061 3061 3061 3065 3069 3072 3076 3079 3082 3086 3088 3093 3092 3096 3100 3101 3102 3105 3109 3112 3115 3118 3119 3120 3122 3124 3127 3130
3088 3085 3082 3079 3076 3073 3071 3069 3067 3064 3062 3062 3061 3060 3060 3059 3060 3058 3058 3060 3064 3067 3071 3075 3078 3082 3082 3086 3090 3093 3093 3097 3100 3102 3104 3108 3109 3113 3115 3117 3118 3121 3124 3126 3128
3088 3084 3081 3078 3075 3072 3070 3068 3066 3064 3062 3061 3061 3060 3058 3057 3060 3058 3059 3060 3063 3066 3068 3072 3075 3079 3082 3085 3090 3093 3093 3096 3097 3100 3104 3107 3108 3109 3113 3116 3116 3117 3121 3123 3125
3087 3085 3081 3078 3074 3071 3068 3067 3065 3064 3063 3062 3060 3058 3058 3057 3057 3058 3059 3060 3061 3065 3069 3072 3075 3078 3082 3086 3088 3091 3092 3094 3094 3098 3103 3104 3104 3106 3109 3112 3113 3113 3117 3120 3122
3087 3084 3081 3078 3074 3071 3068 3065 3064 3062 3062 3061 3060 3059 3058 3057 3056 3057 3058 3059 3061 3064 3067 3071 3075 3079 3082 3084 3086 3088 3091 3091 3094 3098 3099 3098 3100 3102 3105 3108 3109 3110 3112 3115 3118
3086 3083 3080 3077 3074 3070 3067 3065 3063 3061 3060 3059 3058 3057 3056 3056 3055 3056 3057 3058 3060 3062 3066 3071 3074 3077 3079 3081 3084 3087 3089 3089 3091 3094 3094 3094 3093 3095 3100 3104 3104 3105 3107 3110 3113
3086 3082 3079 3076 3073 3070 3066 3064 3062 3060 3059 3058 3057 3056 3055 3054 3054 3055 3057 3058 3060 3062 3065 3069 3072 3075 3076 3078 3080 3084 3087 3088 3089 3091 3090 3090 3088 3092 3095 3098 3098 3100 3102 3104 3108
3085 3081 3077 3074 3071 3069 3066 3062 3060 3059 3058 3056 3055 3055 3054 3053 3053 3054 3056 3057 3059 3061 3062 3065 3069 3073 3073 3074 3079 3080 3083 3083 3085 3086 3087 3087 3085 3089 3091 3092 3093 3095 3096 3099 3103
3085 3081 3077 3073 3069 3067 3065 3062 3059 3057 3055 3054 3053 3055 3053 3052 3051 3051 3054 3055 3057 3059 3062 3063 3065 3067 3068 3070 3070 3074 3078 3079 3081 3083 3083 3081 3083 3086 3087 3087 3089 3089 3092 3095 3099
3083 3080 3076 3072 3068 3065 3063 3061 3060 3057 3054 3053 3051 3049 3049 3049 3048 3049 3050 3053 3054 3056 3057 3060 3061 3057 3062 3066 3070 3073 3075 3075 3076 3078 3079 3079 3082 3083 3082 3081 3083 3085 3087 3090 3093
3080 3077 3074 3071 3067 3063 3061 3058 3055 3054 3050 3048 3047 3046 3046 3046 3046 3046 3048 3050 3051 3053 3055 3057 3054 3060 3065 3067 3068 3070 3071 3072 3074 3075 3076 3075 3074 3073 3074 3076 3078 3080 3082 3086 3086
3078 3073 3070 3067 3064 3062 3059 3057 3053 3050 3048 3045 3043 3043 3044 3045 3044 3044 3045 3045 3047 3049 3050 3051 3053 3058 3060 3062 3064 3064 3065 3067 3070 3071 3069 3068 3066 3066 3069 3069 3070 3073 3077 3078 3080
3073 3070 3067 3064 3063 3058 3056 3054 3051 3048 3044 3043 3041 3041 3042 3043 3043 3043 3042 3044 3043 3045 3048 3049 3051 3051 3054 3054 3059 3058 3062 3065 3066 3067 3064 3065 3058 3058 3062 3065 3066 3068 3069 3072 3072
3070 3066 3063 3059 3057 3055 3053 3050 3048 3048 3046 3041 3039 3038 3038 3040 3040 3041 3040 3040 3039 3041 3044 3041 3045 3046 3045 3046 3055 3053 3059 3061 3061 3061 3061 3060 3061 3048 3055 3055 3059 3061 3062 3061 3064
3066 3062 3058 3056 3053 3052 3049 3047 3047 3049 3041 3036 3034 3034 3035 3035 3035 3036 3037 3038 3039 3038 3037 3035 3041 3041 3041 3046 3048 3053 3056 3056 3055 3056 3053 3048 3053 3035 3039 3045 3049 3052 3052 3053 3055
3061 3058 3054 3052 3050 3047 3045 3045 3045 3040 3036 3034 3032 3032 3032 3033 3032 3032 3032 3032 3033 3034 3031 3033 3031 3035 3039 3041 3043 3046 3051 3048 3048 3047 3034 3040 3043 3014 3032 3035 3039 3043 3045 3046 3048
3056 3053 3050 3047 3045 3043 3041 3042 3040 3032 3031 3029 3030 3030 3028 3029 3028 3027 3028 3028 3028 3029 3029 3027 3026 3026 3029 3030 3031 3033 3036 3036 3032 3031 3030 3032 3019 3011 3021 3028 3031 3032 3035 3035 3037
3051 3049 3045 3043 3041 3039 3038 3036 3032 3030 3029 3029 3029 3028 3026 3024 3026 3024 3024 3023 3024 3024 3025 3019 3016 3017 3019 3021 3026 3025 3026 3025 3028 3026 3025 3017 3010 3012 3015 3019 3022 3022 3024 3028 3030
3046 3043 3041 3038 3036 3034 3033 3029 3027 3026 3026 3025 3026 3026 3024 3024 3023 3021 3019 3017 3017 3018 3018 3014 3009 3009 3011 3015 3015 3015 3020 3022 3018 3015 3013 3007 3005 3002 3005 3011 3014 3014 3017 3019 3023
3040 3037 3035 3033 3032 3031 3028 3025 3022 3021 3021 3021 3019 3021 3020 3019 3019 3018 3016 3016 3014 3014 3012 3011 3009 3006 3006 3004 3004 3007 3007 3010 3009 3006 3005 3002 2992 2996 3001 3005 3008 3010 3011 3013 3016
3035 3033 3030 3028 3029 3024 3023 3023 3020 3017 3016 3016 3015 3013 3013 3013 3011 3011 3010 3011 3010 3009 3009 3007 3004 3000 3000 2999 2998 2996 2996 2996 2994 2994 2992 2993 2980 2990 2992 2997 2999 3002 3003 3007 3010
3031 3029 3027 3024 3021 3019 3019 3019 3017 3015 3012 3010 3009 3008 3008 3008 3007 3002 3002 3003 3003 3003 3001 3000 2997 2993 2991 2992 2991 2990 2990 2989 2989 2985 2981 2985 2968 2984 2988 2991 2994 2995 2996 3000 3003
3027 3023 3022 3020 3018 3016 3014 3012 3012 3013 3010 3008 3005 3004 3003 3002 3003 2999 2998 2998 2996 2997 2997 2995 2992 2991 2989 2988 2988 2985 2983 2982 2982 2982 2976 2977 2978 2981 2981 2984 2987 2988 2988 2992 2997
3020 3015 3014 3014 3013 3011 3012 3009 3008 3009 3007 3004 3001 3001 3000 2998 2996 2996 2995 2993 2992 2991 2990 2989 2985 2985 2981 2982 2981 2978 2977 2976 2978 2974 2972 2971 2972 2973 2975 2978 2980 2984 2985 2988 2991
3014 3012 3009 3007 3006 3005 3004 3001 3000 3002 3002 2998 2996 2995 2994 2993 2992 2990 2990 2990 2987 2985 2984 2982 2978 2977 2972 2974 2974 2968 2969 2970 2970 2968 2967 2966 2962 2967 2967 2967 2970 2975 2979 2982 2986
3006 3006 3005 3004 3002 3001 3000 2997 2994 2994 2995 2994 2990 2987 2987 2987 2985 2983 2981 2981 2980 2978 2977 2976 2974 2972 2963 2968 2965 2957 2959 2960 2959 2958 2959 2959 2958 2958 2958 2959 2960 2966 2970 2973 2977